Location: Oroua River
(40.4333°S, 175.4333°E)
Time: 14:01:32
(UTC+00:00)

USA 281 - Pass Details

Date: 03 February 2023
Orbit: 1079 x 1080 km, 106.0° (Epoch: 19 March)

Event Time Altitude Azimuth Distance (km) Brightness Sun altitude
Rises 16:16:24 0° 152° (SSE) 3,910 7.4 -12.9°
Reaches altitude 10° 16:19:04 10° 145° (SE) 2,948 6.7 -12.5°
Maximum altitude 16:25:25 47° 72° (ENE) 1,404 4.1 -11.5°
Drops below altitude 10° 16:31:42 10° 359° (N) 2,917 5.2 -10.5°
Sets 16:34:19 0° 353° (N) 3,865 5.8 -10.1°
